N505EC KAPA-KASE

Flight info

Callsign N505EC
Flight time 0h 24m
Altitude 24000
Route WNGSS1 WNGSS BAYLR MMARY MMARY1
Aircraft CL60/M-SBDE1E2E3FGHIJ4J5J7M3RWXYZ/LB1V1D1

Departure

Time 2026-05-07 09:03
Airport Centennial Airport (KAPA)

Arrival

Time 2026-05-07 09:27
Airport Aspen-Pitkin County Airport (Sardy Field) (KASE)
Time Latitude Longitude Altitude Speed Heading
2026-05-07 08:50 39.58303 -104.84892 5799 ft 0 kts 270°
2026-05-07 09:01 39.58303 -104.84895 5799 ft 2 kts 281°
2026-05-07 09:01 39.58326 -104.84922 5798 ft 7 kts 338°
2026-05-07 09:01 39.58377 -104.84946 5796 ft 6 kts 340°
2026-05-07 09:01 39.58410 -104.84998 5795 ft 9 kts 276°
2026-05-07 09:02 39.58411 -104.85091 5795 ft 9 kts 268°
2026-05-07 09:02 39.58402 -104.85147 5795 ft 3 kts 206°
2026-05-07 09:02 39.58365 -104.85146 5796 ft 13 kts 176°
2026-05-07 09:02 39.57967 -104.85126 5810 ft 104 kts 176°
2026-05-07 09:03 39.56979 -104.85070 5935 ft 168 kts 181°
2026-05-07 09:03 39.55737 -104.84987 6637 ft 189 kts 178°
2026-05-07 09:03 39.54362 -104.84808 7383 ft 220 kts 178°
2026-05-07 09:03 39.52796 -104.84631 8332 ft 231 kts 178°
2026-05-07 09:04 39.51216 -104.84434 9281 ft 235 kts 178°
2026-05-07 09:04 39.49571 -104.84372 10218 ft 239 kts 194°
2026-05-07 09:04 39.48074 -104.85214 11174 ft 243 kts 225°
2026-05-07 09:04 39.47087 -104.86987 11950 ft 252 kts 258°
2026-05-07 09:05 39.47042 -104.89226 12888 ft 258 kts 283°
2026-05-07 09:05 39.47349 -104.91650 13188 ft 290 kts 283°
2026-05-07 09:05 39.47660 -104.94237 14224 ft 298 kts 283°
2026-05-07 09:05 39.47969 -104.96849 15563 ft 295 kts 283°
2026-05-07 09:06 39.48272 -104.99406 16738 ft 296 kts 283°
2026-05-07 09:06 39.48581 -105.02033 17786 ft 298 kts 283°
2026-05-07 09:06 39.48891 -105.04673 18772 ft 301 kts 283°
2026-05-07 09:06 39.49207 -105.07363 19730 ft 307 kts 283°
2026-05-07 09:07 39.49531 -105.10132 20587 ft 315 kts 283°
2026-05-07 09:07 39.49857 -105.12933 21507 ft 319 kts 283°
2026-05-07 09:07 39.50187 -105.15786 22414 ft 323 kts 283°
2026-05-07 09:07 39.50515 -105.18634 23293 ft 327 kts 283°
2026-05-07 09:08 39.50854 -105.21571 23957 ft 338 kts 283°
2026-05-07 09:08 39.51213 -105.24651 24234 ft 359 kts 283°
2026-05-07 09:08 39.51597 -105.27958 24281 ft 383 kts 283°
2026-05-07 09:08 39.52000 -105.31467 24302 ft 401 kts 283°
2026-05-07 09:09 39.52409 -105.35058 24317 ft 407 kts 282°
2026-05-07 09:09 39.52816 -105.38673 24321 ft 405 kts 282°
2026-05-07 09:09 39.53219 -105.42270 24321 ft 402 kts 283°
2026-05-07 09:09 39.53619 -105.45847 24322 ft 400 kts 282°
2026-05-07 09:10 39.54015 -105.49393 24330 ft 400 kts 282°
2026-05-07 09:10 39.54412 -105.52949 24325 ft 401 kts 282°
2026-05-07 09:10 39.54808 -105.56512 24327 ft 402 kts 282°
2026-05-07 09:10 39.55206 -105.60098 24325 ft 402 kts 283°
2026-05-07 09:11 39.55414 -105.63729 24339 ft 406 kts 275°
2026-05-07 09:11 39.55371 -105.67355 24328 ft 407 kts 273°
2026-05-07 09:11 39.55326 -105.71002 24362 ft 407 kts 274°
2026-05-07 09:11 39.55281 -105.74710 24348 ft 408 kts 273°
2026-05-07 09:12 39.55236 -105.78393 24361 ft 408 kts 274°
2026-05-07 09:12 39.55189 -105.82040 24374 ft 407 kts 273°
2026-05-07 09:12 39.55142 -105.85712 24378 ft 407 kts 274°
2026-05-07 09:12 39.55094 -105.89391 24371 ft 408 kts 274°
2026-05-07 09:13 39.55046 -105.93037 24366 ft 408 kts 274°
2026-05-07 09:13 39.54996 -105.96733 24368 ft 407 kts 274°
2026-05-07 09:13 39.54945 -106.00394 24369 ft 405 kts 274°
2026-05-07 09:13 39.54894 -106.03967 24381 ft 397 kts 274°
2026-05-07 09:14 39.54840 -106.07529 24361 ft 388 kts 274°
2026-05-07 09:14 39.54788 -106.10928 24061 ft 377 kts 274°
2026-05-07 09:14 39.54736 -106.14304 23603 ft 369 kts 274°
2026-05-07 09:14 39.54685 -106.17576 23136 ft 362 kts 274°
2026-05-07 09:15 39.54634 -106.20795 22670 ft 355 kts 274°
2026-05-07 09:15 39.54584 -106.23927 22212 ft 349 kts 274°
2026-05-07 09:15 39.54534 -106.27034 21756 ft 342 kts 274°
2026-05-07 09:15 39.54484 -106.30080 21312 ft 337 kts 274°
2026-05-07 09:16 39.54442 -106.33085 20864 ft 331 kts 275°
2026-05-07 09:16 39.54435 -106.36056 20414 ft 326 kts 276°
2026-05-07 09:16 39.54462 -106.38916 19978 ft 320 kts 276°
2026-05-07 09:16 39.54437 -106.41810 19576 ft 316 kts 274°
2026-05-07 09:17 39.54385 -106.44626 19157 ft 311 kts 275°
2026-05-07 09:17 39.54417 -106.47387 18675 ft 305 kts 277°
2026-05-07 09:17 39.54477 -106.50094 18038 ft 302 kts 277°
2026-05-07 09:17 39.54536 -106.52786 17356 ft 300 kts 277°
2026-05-07 09:18 39.54592 -106.55456 16681 ft 298 kts 276°
2026-05-07 09:18 39.54648 -106.58131 15999 ft 297 kts 277°
2026-05-07 09:18 39.54702 -106.60792 15333 ft 295 kts 276°
2026-05-07 09:18 39.54754 -106.63422 14659 ft 293 kts 276°
2026-05-07 09:19 39.54800 -106.66016 14080 ft 289 kts 274°
2026-05-07 09:19 39.54465 -106.68578 13883 ft 293 kts 257°
2026-05-07 09:19 39.53836 -106.71125 13826 ft 295 kts 256°
2026-05-07 09:19 39.53215 -106.73659 13817 ft 296 kts 256°
2026-05-07 09:20 39.52592 -106.76209 13831 ft 296 kts 257°
2026-05-07 09:20 39.51967 -106.78760 13822 ft 298 kts 257°
2026-05-07 09:20 39.51530 -106.81365 13811 ft 290 kts 272°
2026-05-07 09:20 39.51657 -106.83972 13799 ft 290 kts 279°
2026-05-07 09:21 39.51841 -106.86562 13766 ft 290 kts 278°
2026-05-07 09:21 39.52008 -106.89146 13753 ft 291 kts 276°
2026-05-07 09:21 39.51837 -106.91773 13551 ft 296 kts 259°
2026-05-07 09:21 39.51048 -106.94244 13401 ft 296 kts 242°
2026-05-07 09:22 39.49752 -106.96265 13207 ft 292 kts 225°
2026-05-07 09:22 39.48078 -106.97678 13096 ft 285 kts 207°
2026-05-07 09:22 39.46218 -106.98394 13111 ft 272 kts 190°
2026-05-07 09:22 39.44368 -106.98422 13107 ft 261 kts 173°
2026-05-07 09:23 39.42650 -106.97970 13098 ft 249 kts 168°
2026-05-07 09:23 39.40954 -106.97477 12744 ft 253 kts 168°
2026-05-07 09:23 39.39201 -106.96979 12198 ft 264 kts 168°
2026-05-07 09:23 39.37355 -106.96466 11626 ft 274 kts 168°
2026-05-07 09:24 39.35488 -106.95933 11236 ft 274 kts 167°
2026-05-07 09:24 39.33635 -106.95397 10788 ft 274 kts 167°
2026-05-07 09:24 39.31840 -106.94810 10301 ft 255 kts 158°
2026-05-07 09:24 39.30433 -106.93601 9924 ft 235 kts 132°
2026-05-07 09:25 39.29593 -106.91918 9706 ft 213 kts 113°
2026-05-07 09:25 39.28932 -106.90317 9436 ft 195 kts 134°
2026-05-07 09:25 39.27839 -106.89395 8885 ft 192 kts 155°
2026-05-07 09:25 39.26603 -106.88802 8401 ft 183 kts 163°
2026-05-07 09:26 39.25432 -106.88367 8098 ft 168 kts 161°
2026-05-07 09:26 39.24420 -106.87887 7973 ft 138 kts 157°
2026-05-07 09:26 39.23521 -106.87463 7762 ft 139 kts 157°
2026-05-07 09:26 39.22650 -106.87040 7717 ft 120 kts 159°
2026-05-07 09:27 39.22066 -106.86764 7761 ft 55 kts 159°
2026-05-07 09:27 39.21903 -106.86671 7774 ft 14 kts 131°
2026-05-07 09:27 39.21916 -106.86571 7780 ft 11 kts 341°
2026-05-07 09:28 39.22031 -106.86624 7771 ft 23 kts 340°
2026-05-07 09:28 39.22126 -106.86670 7763 ft 15 kts 340°
2026-05-07 09:28 39.22228 -106.86716 7755 ft 12 kts 341°
2026-05-07 09:28 39.22277 -106.86703 7753 ft 2 kts 66°